CAPE
0 0 0 0 0 0 0 0 0 0 95 101 89 143 296 608 598 501 357 268 301 334 443 468 502 508 393 207 188 139 134 152 136 209 200 387 340 546 567 341 213 124 50 327
0 0 0 0 0 0 0 0 0 0 92 120 119 78 202 453 506 527 514 368 329 280 337 464 458 423 305 321 311 258 149 119 171 216 204 493 471 533 702 500 159 95 113 307
0 0 0 0 0 0 0 0 0 0 61 186 114 25 72 236 323 404 420 307 243 244 162 174 244 252 197 188 247 270 169 141 183 255 249 661 706 667 171 101 776 920 1026 795
0 0 0 0 0 0 0 0 0 0 0 0 18 0 0 46 118 195 240 321 300 207 182 157 157 139 177 66 27 101 144 204 257 283 232 506 471 96 20 114 680 889 858 812
0 0 0 0 0 0 0 0 0 0 0 0 16 47 0 0 3 26 71 129 201 255 244 244 183 163 160 71 62 44 139 236 317 273 229 404 375 169 39 38 195 336 270 333
0 0 0 0 0 0 0 0 0 0 0 0 0 32 0 0 0 0 22 39 60 193 228 206 222 168 119 59 106 85 86 112 301 340 266 329 280 203 139 139 161 112 6 0
0 0 0 0 0 0 0 0 0 0 0 0 0 0 0 0 0 0 0 3 5 23 207 231 274 265 147 120 148 134 206 276 352 380 337 243 8 3 167 89 193 68 0 0
0 0 0 0 0 0 0 0 0 0 0 0 0 0 0 0 0 0 0 2 0 0 126 298 330 304 161 152 159 186 331 535 712 578 505 342 92 178 237 222 204 10 0 0
0 0 0 0 0 0 0 0 0 0 0 0 0 0 0 0 0 0 0 4 12 3 38 65 303 348 192 159 209 196 381 653 834 889 753 577 310 297 153 63 0 0 0 0
0 0 0 0 0 0 0 0 0 0 0 0 0 0 0 0 0 0 0 0 0 7 99 124 267 346 247 121 140 241 230 348 447 500 605 402 220 100 23 0 0 0 0 0
0 0 0 0 0 0 0 0 0 0 0 0 0 0 0 0 0 0 0 0 2 7 131 206 317 334 279 147 228 119 114 206 426 548 239 106 18 0 0 0 0 0 0 0
0 0 0 0 0 0 0 0 0 0 0 0 0 0 0 0 0 0 0 0 15 30 38 100 207 297 309 481 500 292 342 509 522 257 87 24 0 0 0 0 0 0 0 0
0 0 0 0 0 0 0 0 0 0 0 0 0 0 0 0 0 0 0 0 4 34 50 158 242 354 458 696 696 590 702 725 488 198 18 0 0 0 0 0 0 0 0 0
0 0 0 0 0 0 0 0 0 0 0 0 0 0 0 0 0 0 0 0 0 74 142 256 517 679 693 820 744 858 944 770 404 124 0 0 0 0 0 0 0 0 0 0
0 0 0 0 0 0 0 0 0 0 0 0 0 0 0 0 0 0 0 0 24 81 217 517 679 913 934 862 788 861 863 535 200 48 0 0 0 0 0 0 0 0 0 0
0 0 0 0 0 0 0 0 0 0 0 0 0 0 0 0 0 0 0 43 199 191 564 860 952 1044 1028 875 721 671 508 110 21 16 0 0 0 0 0 0 0 0 0 0
0 0 0 0 0 0 0 0 0 1 72 0 0 4 11 0 0 0 0 131 315 389 740 953 1066 1086 983 798 474 366 94 0 0 0 0 0 0 0 0 0 0 0 0 0
0 0 0 0 0 8 0 64 100 210 256 209 144 95 40 47 77 1 0 5 361 701 905 1092 1206 1122 813 487 260 108 81 51 3 0 0 0 0 0 0 0 0 0 0 0
0 0 0 0 0 0 54 72 205 296 287 226 191 198 159 177 98 0 0 0 314 815 1139 1272 1237 1014 670 471 218 259 65 55 2 0 0 0 0 0 0 0 0 0 0 0
0 0 0 0 0 0 10 138 109 163 328 232 150 262 466 497 46 11 38 317 584 1188 1317 1321 1126 717 555 286 210 376 62 0 0 0 0 0 0 0 0 0 0 0 0 0
0 0 0 14 12 3 10 161 235 283 238 201 114 63 370 399 548 504 417 451 999 1308 1364 1121 906 760 440 167 344 375 0 0 0 0 0 0 0 0 0 0 0 0 0 0
13 30 90 88 1 36 37 114 253 180 152 57 63 45 150 602 802 910 652 894 1170 1333 1093 792 838 566 173 190 138 89 1 0 0 0 0 0 0 0 0 0 0 0 0 0
11 95 185 229 172 57 47 50 153 168 107 56 10 0 2 482 937 1083 974 1016 1087 1014 773 700 677 338 36 16 19 1 0 0 0 0 0 0 0 0 0 0 0 0 0 0
0 30 167 125 111 71 26 48 37 138 69 31 5 7 0 3 933 1144 1097 1028 1004 861 635 374 197 99 28 9 21 0 0 0 0 0 0 0 0 0 0 0 0 0 0 0
0 0 0 0 0 0 0 39 43 25 84 38 46 8 0 2 790 1262 1129 1086 1114 732 457 284 240 43 1 1 0 0 0 0 0 0 0 0 0 0 0 0 0 0 0 0
0 0 0 0 0 0 0 0 0 0 1 0 1 68 2 138 628 1143 1095 951 1045 986 774 511 124 8 1 0 0 0 0 0 0 0 0 0 0 0 0 0 0 0 0 0
CIN
0 0 0 0 0 0 0 0 0 0 -173 -149 -149 -155 -203 -289 -336 -272 -260 -240 -191 -178 -150 -169 -157 -167 -168 -160 -162 -171 -166 -155 -150 -138 -139 -116 -112 -81 -73 -96 -114 -120 -147 -63
0 0 0 0 0 0 0 0 0 0 -160 -125 -125 -132 -207 -300 -274 -297 -244 -230 -188 -174 -188 -172 -160 -166 -183 -167 -171 -184 -164 -175 -134 -115 -132 -104 -101 -76 -57 -81 -127 -155 -127 -78
0 0 0 0 0 0 0 0 0 0 -146 -188 -154 -96 -160 -276 -410 -373 -339 -283 -255 -177 -183 -227 -196 -193 -214 -216 -219 -206 -200 -184 -145 -122 -132 -83 -76 -46 -69 -78 -57 -53 -60 -62
0 0 0 0 0 0 0 0 0 0 0 0 -249 -36 0 -225 -291 -400 -361 -318 -250 -242 -242 -266 -247 -249 -224 -254 -327 -291 -270 -225 -172 -135 -139 -75 -51 -65 -95 -66 -81 -69 -66 -60
0 0 0 0 0 0 0 0 0 0 0 0 -222 -155 -1 0 -179 -242 -336 -393 -339 -250 -238 -230 -247 -210 -241 -338 -310 -353 -313 -250 -193 -142 -137 -91 -70 -90 -126 -144 -104 -129 -106 -113
0 0 0 0 0 0 0 0 0 0 0 0 0 -177 0 0 0 0 -261 -352 -379 -293 -268 -271 -270 -302 -297 -407 -361 -323 -345 -318 -228 -166 -155 -127 -93 -109 -102 -117 -119 -150 -156 0
0 0 0 0 0 0 0 0 0 0 0 0 0 0 0 0 0 0 0 -309 -137 -371 -299 -307 -299 -312 -387 -369 -402 -341 -298 -269 -233 -186 -176 -146 -101 -127 -123 -144 -132 -194 0 0
0 0 0 0 0 0 0 0 0 0 0 0 0 0 0 0 0 0 0 -368 0 0 -351 -340 -315 -339 -387 -376 -423 -372 -298 -237 -208 -192 -169 -190 -237 -160 -132 -139 -153 -305 0 0
0 0 0 0 0 0 0 0 0 0 0 0 0 0 0 0 0 0 0 -389 -349 -420 -427 -402 -387 -429 -438 -407 -419 -367 -307 -262 -194 -156 -155 -164 -174 -144 -184 -286 -26 0 0 0
0 0 0 0 0 0 0 0 0 0 0 0 0 0 0 0 0 0 -11 0 0 -465 -464 -474 -460 -476 -509 -499 -480 -439 -410 -349 -322 -244 -184 -202 -255 -331 -372 0 0 0 0 0
0 0 0 0 0 0 0 0 0 0 0 0 0 0 0 0 0 0 0 -61 -217 -481 -450 -472 -494 -513 -533 -556 -506 -508 -492 -418 -345 -250 -326 -369 -466 0 0 0 0 0 0 0
0 0 0 0 0 0 0 0 0 0 0 0 0 0 0 0 0 0 0 0 -358 -465 -529 -492 -526 -547 -571 -519 -478 -469 -413 -359 -312 -360 -421 -509 0 0 0 0 0 0 0 0
0 0 0 0 0 0 0 0 0 0 0 0 0 0 0 0 0 0 0 0 -335 -460 -537 -551 -574 -560 -557 -507 -463 -428 -351 -310 -360 -427 -476 0 0 0 0 0 0 0 0 0
0 0 0 0 0 0 0 0 0 0 0 0 0 0 0 0 0 0 0 0 0 -390 -457 -524 -561 -561 -588 -521 -482 -392 -337 -352 -442 -544 0 0 0 0 0 0 0 0 0 0
0 0 0 0 0 0 0 0 0 0 0 0 0 0 0 0 0 0 0 0 -453 -361 -452 -509 -567 -574 -568 -515 -473 -398 -369 -452 -566 -602 0 0 0 0 0 0 0 0 0 0
0 0 0 0 0 0 0 0 0 0 0 0 0 0 0 0 0 0 0 -395 -354 -285 -393 -564 -647 -605 -542 -516 -486 -416 -417 -571 -615 -589 0 0 0 0 0 0 0 0 0 0
0 0 0 0 0 0 0 0 0 -29 -216 0 0 -75 -367 0 0 0 0 -345 -268 -372 -516 -615 -639 -596 -548 -505 -503 -460 -563 0 0 0 0 0 0 0 0 0 0 0 0 0
0 0 0 0 0 -48 0 -144 -123 -150 -222 -293 -307 -383 -476 -428 -449 -43 0 -41 -303 -480 -547 -631 -660 -602 -593 -619 -626 -619 -527 -600 -124 0 0 0 0 0 0 0 0 0 0 0
0 0 0 0 0 0 -84 -169 -181 -120 -145 -328 -305 -350 -497 -537 -447 0 0 0 -504 -516 -587 -638 -686 -683 -676 -635 -674 -536 -645 -643 -240 0 0 0 0 0 0 0 0 0 0 0
0 0 0 0 0 0 -128 -184 -357 -346 -80 -287 -367 -338 -400 -429 -125 -17 -503 -645 -538 -566 -624 -674 -705 -735 -716 -737 -700 -520 -656 0 0 0 0 0 0 0 0 0 0 0 0 0
0 0 0 -70 -79 -41 -219 -225 -297 -59 -75 -294 -362 -448 -403 -344 -411 -578 -706 -600 -592 -578 -640 -724 -745 -694 -747 -762 -579 -491 0 0 0 0 0 0 0 0 0 0 0 0 0 0
-51 -26 -34 -91 -10 -58 -296 -195 -60 -201 -305 -373 -356 -399 -426 -380 -380 -512 -605 -611 -569 -578 -631 -663 -584 -672 -786 -639 -570 -626 0 0 0 0 0 0 0 0 0 0 0 0 0 0
-23 -62 -27 -53 -52 -177 -286 -305 -305 -371 -412 -473 -501 0 -51 -336 -285 -367 -419 -490 -488 -524 -578 -524 -476 -551 -669 -719 -681 -67 0 0 0 0 0 0 0 0 0 0 0 0 0 0
0 -197 -63 -88 -96 -153 -183 -250 -285 -337 -417 -499 -304 -514 0 -89 -248 -286 -322 -382 -439 -487 -513 -560 -563 -578 -654 -659 -172 0 0 0 0 0 0 0 0 0 0 0 0 0 0 0
0 0 0 0 0 0 0 -207 -223 -306 -370 -449 -467 -321 0 -120 -262 -211 -257 -321 -353 -414 -495 -501 -478 -550 0 0 0 0 0 0 0 0 0 0 0 0 0 0 0 0 0 0
0 0 0 0 0 0 0 0 0 0 -323 0 -144 -386 -346 -435 -300 -208 -199 -260 -266 -304 -310 -334 -503 -161 -285 0 0 0 0 0 0 0 0 0 0 0 0 0 0 0 0 0
Wind_Speed
14 10 6 1 6 12 13 14 14 14 12 11 9 10 10 13 13 12 13 13 17 18 18 16 15 17 18 16 19 16 13 11 9 9 8 9 8 10 13 14 12 13 14 13
16 11 8 19 14 11 13 15 19 16 13 11 11 5 7 8 11 13 13 14 22 18 19 19 20 20 20 21 24 23 22 22 22 18 16 10 9 8 11 15 14 13 12 11
20 22 16 17 18 12 13 13 17 23 19 15 13 4 6 8 10 13 16 17 23 21 21 21 22 26 26 24 23 23 22 22 22 22 19 16 16 15 8 4 8 5 11 12
23 24 20 20 19 15 19 14 17 20 19 4 14 7 7 8 8 13 19 21 23 23 22 23 23 25 26 25 23 21 21 21 22 22 20 17 15 15 15 17 20 18 16 16
20 20 21 21 23 16 22 19 23 22 19 14 11 6 19 5 10 11 17 21 21 23 24 24 25 25 24 22 22 20 19 19 20 22 20 18 14 14 15 15 15 16 14 14
27 23 22 20 17 17 23 21 22 21 19 18 5 4 15 19 12 13 12 17 19 22 23 25 23 21 22 18 19 19 18 18 19 20 20 17 14 13 14 14 13 11 12 15
28 30 26 23 24 22 20 23 25 23 19 21 21 3 9 20 19 19 11 15 19 22 21 21 23 21 20 18 19 20 19 18 18 20 19 17 14 13 12 12 11 10 10 13
28 31 24 20 20 21 20 18 20 24 22 24 20 7 11 10 25 26 15 13 14 15 21 22 22 21 19 16 17 18 18 18 16 17 17 13 13 10 9 10 10 10 11 13
25 31 24 22 19 17 20 21 17 22 23 25 22 21 27 27 17 21 14 8 10 15 18 21 18 18 15 15 13 12 14 14 13 13 13 10 8 7 7 9 10 10 12 13
24 32 27 23 22 22 22 17 22 22 26 28 24 22 14 14 26 17 6 4 7 14 15 17 16 15 12 11 11 10 11 10 10 9 9 7 7 7 8 8 9 10 12 13
22 26 30 23 25 28 25 24 24 22 23 28 31 29 14 5 17 29 19 4 5 12 13 11 14 15 12 11 12 8 6 5 7 8 8 8 8 8 9 9 10 10 12 13
21 25 31 31 26 26 26 26 23 25 26 26 28 33 24 20 25 28 27 18 1 4 10 11 12 12 12 13 11 10 8 6 7 6 8 9 9 9 9 8 9 10 12 14
24 24 30 29 24 22 26 25 25 24 24 27 30 34 25 27 25 24 26 23 2 1 5 9 13 19 18 15 13 12 10 7 6 7 7 8 9 9 9 9 9 11 12 14
20 20 22 28 31 28 28 25 23 23 26 25 29 35 38 34 32 26 22 7 4 3 6 8 10 14 15 16 16 14 11 9 7 7 7 7 8 8 9 9 10 11 12 13
24 25 27 31 32 28 27 25 21 23 26 27 25 25 31 30 33 32 27 18 4 12 9 9 10 8 9 11 13 13 9 8 7 7 6 6 6 7 8 9 10 11 12 12
25 26 28 32 26 28 29 27 26 26 23 25 22 25 20 32 29 28 25 7 9 11 6 5 6 8 10 11 12 10 5 3 1 4 5 6 7 7 7 8 10 10 11 11
26 26 30 32 30 33 29 28 23 19 20 22 24 24 30 31 32 31 25 5 12 9 6 5 5 7 9 10 9 8 2 5 10 2 3 5 6 6 6 8 9 9 10 11
24 26 27 33 30 31 23 19 14 14 18 21 24 28 30 32 34 34 22 5 9 10 7 6 7 6 7 9 11 12 13 7 7 5 3 5 7 5 6 7 7 8 9 10
13 24 28 33 31 31 21 23 23 22 21 23 28 30 31 32 31 25 24 19 11 8 9 8 9 8 10 13 15 14 10 10 8 9 9 9 7 4 4 5 6 7 7 8
16 20 23 27 35 33 22 24 22 21 25 25 26 29 31 30 31 26 25 26 12 4 8 11 11 10 12 14 17 16 11 10 11 14 13 9 7 3 4 4 5 6 7 7
21 20 22 28 38 34 26 27 17 26 24 23 25 27 29 30 31 37 37 29 11 6 6 7 10 13 14 16 18 14 10 9 6 10 10 7 5 2 3 4 4 5 6 7
18 18 19 23 34 38 25 21 24 22 20 23 24 26 29 32 34 32 28 23 14 10 8 6 7 10 14 16 13 7 5 3 5 10 9 7 6 2 3 4 4 4 5 6
18 12 17 17 27 24 26 27 25 23 26 26 28 27 28 30 31 29 25 19 15 11 9 8 9 9 10 10 9 7 7 4 7 8 6 6 4 3 3 2 3 3 4 6
15 14 19 19 20 22 25 25 24 25 29 32 31 32 29 30 30 26 21 18 15 13 13 12 10 10 9 8 6 13 8 7 10 8 4 2 2 1 1 1 2 2 3 3
18 15 19 24 25 26 26 23 25 27 30 31 29 31 29 30 30 25 19 16 13 12 9 8 8 10 14 16 10 7 8 11 9 6 3 2 1 1 1 2 2 1 2 3
18 19 20 21 22 28 30 28 27 31 31 29 31 30 30 31 31 26 22 19 15 9 8 4 4 8 9 8 4 5 9 7 7 4 2 2 1 2 2 5 5 4 5 3
Wind_Direction
284 285 283 349 343 346 0 3 18 39 60 62 141 171 128 146 146 147 151 147 163 168 170 164 158 162 163 158 159 149 137 134 107 81 40 24 21 343 334 341 8 4 2 43
278 267 274 287 302 323 337 342 341 12 38 44 39 149 149 143 169 170 164 171 180 175 168 170 174 169 165 168 174 172 168 162 158 142 139 103 84 24 352 334 340 337 8 70
268 277 276 282 288 306 315 332 340 328 346 360 13 72 56 165 170 177 184 182 186 180 175 171 174 182 179 171 165 166 162 161 163 161 159 156 129 113 66 81 249 233 85 83
276 273 271 273 279 292 293 321 331 331 338 59 0 214 63 180 176 187 197 191 190 184 179 179 175 177 177 174 162 152 149 155 160 162 163 156 146 136 155 145 174 191 224 213
275 280 276 270 270 279 285 305 308 317 330 339 352 40 237 128 204 194 198 194 190 187 185 181 180 178 172 162 162 156 147 151 156 162 165 160 144 137 133 118 129 240 325 354
271 275 282 280 279 279 285 296 307 317 323 318 200 145 222 237 209 225 192 195 186 184 183 183 180 173 172 155 158 159 156 158 157 160 165 164 146 130 119 120 106 90 20 343
275 270 275 277 273 278 282 286 292 300 308 309 315 344 204 241 233 231 213 196 179 179 178 174 175 171 165 160 158 158 157 156 156 160 161 165 164 144 135 119 99 82 46 11
273 270 270 274 274 274 274 275 282 289 298 305 312 317 216 214 256 260 218 181 169 169 175 175 175 175 172 165 160 154 154 153 148 154 159 150 154 130 108 95 84 66 33 18
275 269 276 272 274 277 273 271 285 290 298 297 304 314 257 286 228 230 341 11 143 162 170 174 171 172 171 167 162 150 145 140 139 144 144 130 113 86 65 63 54 39 29 25
279 272 273 277 273 273 274 274 275 283 286 287 297 307 324 333 252 221 92 95 108 145 152 159 164 167 168 170 161 154 145 133 125 119 115 91 57 36 42 44 39 31 25 22
290 279 276 279 269 267 272 272 275 281 283 288 288 292 323 228 259 259 217 139 108 143 148 149 153 157 160 165 163 152 137 107 104 99 91 84 62 55 48 40 35 32 26 16
304 286 277 276 280 277 271 269 269 271 278 285 289 286 303 314 296 284 243 191 341 98 150 153 155 156 157 160 162 157 142 118 99 78 78 71 66 71 58 46 41 33 24 11
307 292 283 280 285 284 273 269 269 273 279 277 283 286 297 300 300 290 286 204 225 342 135 150 152 159 156 154 155 151 143 127 104 91 83 74 75 78 73 60 46 33 23 15
314 299 293 280 280 286 280 272 268 267 270 278 284 287 273 282 283 296 299 289 207 181 157 165 159 158 155 155 157 155 150 141 124 111 101 82 75 76 74 54 44 38 28 24
305 294 292 288 285 285 281 281 271 266 272 274 286 293 282 286 283 287 293 287 238 165 165 167 170 172 170 165 162 160 161 153 135 121 107 80 68 60 52 47 40 30 28 31
301 289 296 286 290 296 277 278 276 277 277 278 284 290 300 288 294 294 291 276 206 185 184 190 177 177 172 172 169 168 195 239 257 110 102 86 81 71 52 45 38 35 33 37
291 290 287 281 292 288 276 277 279 281 288 282 278 290 296 288 288 286 289 252 204 248 257 228 198 175 172 171 161 160 186 337 301 329 104 100 93 83 54 40 39 44 45 43
285 287 286 279 290 277 283 292 290 283 289 294 290 291 293 289 278 268 293 250 210 253 241 220 187 175 174 168 160 157 147 137 118 280 160 136 126 94 60 46 49 47 46 41
281 286 281 275 272 279 284 278 280 284 287 298 292 293 294 294 289 296 299 294 289 246 232 214 193 182 166 169 162 161 160 155 167 169 177 162 146 105 68 62 63 54 48 43
320 300 287 279 264 266 274 285 299 294 276 298 299 297 295 297 281 290 305 299 299 233 203 195 189 193 181 174 169 168 174 171 163 156 162 160 149 115 83 70 57 43 50 43
315 312 297 281 266 265 277 286 301 278 281 300 304 300 298 294 292 286 287 294 304 272 234 213 196 199 201 187 179 183 184 177 163 151 152 159 148 110 76 65 51 48 38 31
321 322 308 291 267 258 286 280 276 288 303 303 308 310 301 300 301 298 299 300 297 292 281 260 232 216 207 196 202 213 224 202 156 149 157 154 144 111 91 98 59 31 15 9
319 325 319 301 273 279 282 279 279 290 289 298 300 306 308 305 307 310 308 306 302 297 291 281 271 258 255 239 225 255 267 211 167 152 163 156 142 124 114 98 72 46 12 0
321 323 306 309 291 288 284 287 293 290 287 289 293 292 300 298 299 308 314 315 307 299 295 298 295 278 255 222 247 290 189 174 154 155 187 215 145 69 52 33 42 33 19 18
307 311 307 296 290 292 290 292 297 297 300 296 297 287 293 295 293 301 314 321 325 312 313 310 301 291 283 287 276 171 180 165 150 160 205 187 325 17 24 336 330 326 339 6
291 293 292 292 291 295 287 290 297 294 292 296 293 295 291 290 286 292 297 303 312 311 309 326 326 293 279 205 209 205 168 165 157 177 219 157 11 356 350 329 326 319 326 340